SES-4

Last updated on Thu Nov 21 2024 00:02:42 GMT+0000 (Coordinated Universal Time)

1 38087U 12007A 24324.34841196 -.00000166 00000+0 00000+0 0 9999 2 38087 0.0275 35.8283 0002344 199.4233 287.0702 1.00271601 46469
UTC large
Height (km)
Speed (km/s)
/
Latitude / Longitude
Inclination (degrees)
Orbital Period (minutes)
Azimuth
Elevation
Range (km)
Doppler Factor

Next 0 passes for location: London (51.5072 / 0.1276)

Sorry there are no passes over London.